| time (UTC) | temp F | wind direction | speed MPH | gust MPH | rain 1hr in | rain 24hr in | rain mn in | humidity % | barometer mb |
| 20260905130003 | 71 | 76 | 3.0 | 7.0 | 0.00 | 0.00 | 0.00 | 81 | 1011.6 |
| 20260905124500 | 71 | 81 | 4.0 | 8.0 | 0.00 | 0.00 | 0.00 | 80 | 1011.8 |
| 20260905123001 | 71 | 75 | 3.0 | 6.0 | 0.00 | 0.00 | 0.00 | 80 | 1011.8 |
| 20260905121501 | 71 | 77 | 3.0 | 7.0 | 0.00 | 0.00 | 0.00 | 79 | 1011.9 |
| 20260905113000 | 70 | 65 | 3.0 | 6.0 | 0.00 | 0.00 | 0.00 | 83 | 1011.7 |
| 20260905111500 | 70 | 74 | 3.0 | 6.0 | 0.00 | 0.00 | 0.00 | 83 | 1011.5 |
| 20260905104503 | 70 | 84 | 1.0 | 4.0 | 0.00 | 0.00 | 0.00 | 85 | 1011.2 |
| 20260905103000 | 70 | 71 | 1.0 | 4.0 | 0.00 | 0.00 | 0.00 | 85 | 1011.0 |
| 20260905101500 | 70 | 101 | 2.0 | 4.0 | 0.00 | 0.00 | 0.00 | 86 | 1010.7 |
| 20260905094501 | 70 | 128 | 2.0 | 5.0 | 0.00 | 0.00 | 0.00 | 89 | 1010.7 |
| 20260905093000 | 71 | 94 | 1.0 | 4.0 | 0.00 | 0.00 | 0.00 | 91 | 1010.6 |
| 20260905091500 | 71 | 105 | 0.0 | 3.0 | 0.00 | 0.00 | 0.00 | 91 | 1010.7 |
| 20260905084500 | 71 | 81 | 1.0 | 3.0 | 0.00 | 0.00 | 0.00 | 92 | 1010.7 |
| 20260905083000 | 71 | 80 | 1.0 | 3.0 | 0.00 | 0.00 | 0.00 | 92 | 1010.5 |
| 20260905081500 | 71 | 76 | 2.0 | 4.0 | 0.00 | 0.00 | 0.00 | 93 | 1010.5 |
| 20260905074501 | 71 | 74 | 0.0 | 1.0 | 0.00 | 0.00 | 0.00 | 93 | 1010.6 |
| 20260905073000 | 71 | 74 | 1.0 | 2.0 | 0.00 | 0.00 | 0.00 | 93 | 1010.5 |
| 20260905070003 | 71 | 58 | 1.0 | 2.0 | 0.00 | 0.00 | 0.00 | 93 | 1010.8 |
| 20260905064501 | 71 | 90 | 0.0 | 2.0 | 0.00 | 0.00 | 0.00 | 93 | 1010.8 |
| 20260905063000 | 71 | 82 | 1.0 | 2.0 | 0.00 | 0.00 | 0.00 | 93 | 1010.8 |
| 20260905061501 | 71 | 100 | 0.0 | 2.0 | 0.00 | 0.00 | 0.00 | 93 | 1010.9 |
| 20260905060003 | 72 | 89 | 1.0 | 2.0 | 0.00 | 0.00 | 0.00 | 93 | 1011.0 |
| 20260905054500 | 72 | 79 | 1.0 | 3.0 | 0.00 | 0.00 | 0.00 | 92 | 1011.2 |
| 20260905051500 | 73 | 98 | 1.0 | 4.0 | 0.00 | 0.00 | 0.00 | 91 | 1011.2 |
| 20260905050004 | 73 | 92 | 1.0 | 4.0 | 0.00 | 0.00 | 0.00 | 91 | 1011.2 |
| 20260905043000 | 74 | 73 | 1.0 | 3.0 | 0.00 | 0.00 | 0.00 | 92 | 1011.7 |
| 20260905041500 | 74 | 276 | 0.0 | 1.0 | 0.00 | 0.00 | 0.00 | 92 | 1011.7 |
| 20260905040004 | 75 | 276 | 0.0 | 1.0 | 0.00 | 0.00 | 0.00 | 91 | 1011.8 |
| 20260905034501 | 75 | 70 | 0.0 | 1.0 | 0.00 | 0.00 | 0.00 | 90 | 1011.7 |
| 20260905033000 | 76 | 70 | 1.0 | 2.0 | 0.00 | 0.00 | 0.00 | 88 | 1011.6 |
| 20260905031500 | 76 | 314 | 0.0 | 0.0 | 0.00 | 0.00 | 0.00 | 88 | 1011.6 |
| 20260905030004 | 76 | 298 | 0.0 | 0.0 | 0.00 | 0.00 | 0.00 | 88 | 1011.6 |
| 20260905024501 | 76 | 298 | 0.0 | 0.0 | 0.00 | 0.00 | 0.00 | 88 | 1011.5 |
| 20260905023000 | 75 | 298 | 0.0 | 0.0 | 0.00 | 0.00 | 0.00 | 88 | 1011.6 |
| 20260905020003 | 76 | 298 | 0.0 | 0.0 | 0.00 | 0.00 | 0.00 | 87 | 1011.5 |
| 20260905014502 | 76 | 298 | 0.0 | 0.0 | 0.00 | 0.00 | 0.00 | 87 | 1011.4 |
| 20260905013001 | 76 | 298 | 0.0 | 0.0 | 0.00 | 0.00 | 0.00 | 87 | 1011.5 |
| 20260905011500 | 76 | 298 | 0.0 | 0.0 | 0.00 | 0.00 | 0.00 | 86 | 1011.4 |
| 20260905010006 | 76 | 298 | 0.0 | 0.0 | 0.00 | 0.00 | 0.00 | 87 | 1011.5 |
| 20260905004500 | 75 | 298 | 0.0 | 0.0 | 0.00 | 0.00 | 0.00 | 88 | 1011.5 |
| 20260905003001 | 75 | 298 | 0.0 | 0.0 | 0.00 | 0.00 | 0.00 | 88 | 1011.5 |
| 20260905001502 | 75 | 298 | 0.0 | 0.0 | 0.00 | 0.00 | 0.00 | 87 | 1011.4 |
| 20260905000003 | 76 | 298 | 0.0 | 0.0 | 0.00 | 0.00 | 0.00 | 86 | 1011.3 |
| 20260904234500 | 77 | 298 | 0.0 | 0.0 | 0.00 | 0.00 | 0.00 | 84 | 1011.4 |
| 20260904231500 | 79 | 298 | 0.0 | 0.0 | 0.00 | 0.00 | 0.00 | 81 | 1011.3 |
| 20260904230005 | 80 | 298 | 0.0 | 1.0 | 0.00 | 0.00 | 0.00 | 79 | 1011.2 |
| 20260904224500 | 81 | 295 | 0.0 | 4.0 | 0.00 | 0.00 | 0.00 | 78 | 1011.6 |
| 20260904221500 | 82 | 277 | 1.0 | 3.0 | 0.00 | 0.00 | 0.00 | 75 | 1011.6 |
| 20260904214500 | 83 | 301 | 1.0 | 4.0 | 0.00 | 0.00 | 0.00 | 73 | 1011.8 |
| 20260904213001 | 83 | 263 | 0.0 | 2.0 | 0.00 | 0.00 | 0.00 | 72 | 1011.9 |
| 20260904211500 | 83 | 289 | 0.0 | 2.0 | 0.00 | 0.00 | 0.00 | 72 | 1012.1 |
| 20260904210004 | 83 | 13 | 0.0 | 2.0 | 0.00 | 0.00 | 0.00 | 70 | 1012.4 |
| 20260904204501 | 83 | 28 | 1.0 | 3.0 | 0.00 | 0.00 | 0.00 | 69 | 1012.2 |
| 20260904203002 | 85 | 1 | 1.0 | 5.0 | 0.00 | 0.00 | 0.00 | 66 | 1012.1 |
| 20260904200005 | 86 | 53 | 2.0 | 7.0 | 0.00 | 0.00 | 0.00 | 66 | 1012.0 |
| 20260904194501 | 85 | 21 | 2.0 | 9.0 | 0.00 | 0.00 | 0.00 | 66 | 1012.2 |
| 20260904191501 | 84 | 329 | 2.0 | 7.0 | 0.00 | 0.00 | 0.00 | 70 | 1012.8 |
| 20260904190005 | 84 | 26 | 4.0 | 10.0 | 0.00 | 0.00 | 0.00 | 68 | 1013.0 |
| 20260904184501 | 84 | 40 | 2.0 | 9.0 | 0.00 | 0.00 | 0.00 | 71 | 1013.1 |
| 20260904183001 | 83 | 81 | 2.0 | 7.0 | 0.00 | 0.00 | 0.00 | 71 | 1013.2 |
| 20260904181501 | 83 | 36 | 3.0 | 7.0 | 0.00 | 0.00 | 0.00 | 69 | 1013.3 |
| 20260904180005 | 83 | 49 | 3.0 | 15.0 | 0.00 | 0.00 | 0.00 | 70 | 1013.3 |
| 20260904174503 | 83 | 2 | 3.0 | 9.0 | 0.00 | 0.00 | 0.00 | 70 | 1013.3 |
| 20260904173002 | 83 | 37 | 4.0 | 12.0 | 0.00 | 0.00 | 0.00 | 71 | 1013.5 |
| 20260904171502 | 83 | 8 | 2.0 | 7.0 | 0.00 | 0.00 | 0.00 | 73 | 1013.5 |
| 20260904170005 | 83 | 348 | 2.0 | 11.0 | 0.00 | 0.00 | 0.00 | 73 | 1013.4 |
| 20260904164501 | 82 | 63 | 4.0 | 9.0 | 0.00 | 0.00 | 0.00 | 73 | 1013.5 |
| 20260904163003 | 82 | 65 | 4.0 | 10.0 | 0.00 | 0.00 | 0.00 | 73 | 1013.6 |
| 20260904161500 | 82 | 60 | 4.0 | 11.0 | 0.00 | 0.00 | 0.00 | 73 | 1013.6 |
| 20260904160006 | 82 | 63 | 3.0 | 10.0 | 0.00 | 0.00 | 0.00 | 73 | 1013.7 |
| 20260904154501 | 81 | 2 | 5.0 | 12.0 | 0.00 | 0.00 | 0.00 | 75 | 1013.8 |
| 20260904151501 | 80 | 237 | 3.0 | 9.0 | 0.00 | 0.00 | 0.00 | 78 | 1013.7 |
| 20260904144501 | 79 | 38 | 6.0 | 13.0 | 0.00 | 0.00 | 0.00 | 76 | 1013.7 |
| 20260904143001 | 79 | 335 | 3.0 | 7.0 | 0.00 | 0.00 | 0.00 | 79 | 1013.7 |
| 20260904141501 | 78 | 80 | 5.0 | 11.0 | 0.00 | 0.00 | 0.00 | 78 | 1013.6 |
| 20260904140003 | 77 | 103 | 5.0 | 13.0 | 0.00 | 0.00 | 0.00 | 80 | 1013.4 |
| 20260904134503 | 77 | 65 | 5.0 | 10.0 | 0.00 | 0.00 | 0.00 | 79 | 1013.3 |
| 20260904133001 | 76 | 341 | 5.0 | 14.0 | 0.00 | 0.00 | 0.00 | 81 | 1013.4 |
| 20260904131501 | 76 | 347 | 2.0 | 8.0 | 0.00 | 0.00 | 0.00 | 82 | 1013.3 |